TimeAEST,TemperatureF,Dew PointF,Humidity,Sea Level PressureIn,VisibilityMPH,Wind Direction,Wind SpeedMPH,Gust SpeedMPH,PrecipitationIn,Events,Conditions,WindDirDegrees,DateUTC
12:00 AM,72,65,72,30.03,,South,9.2,,,,Overcast,170,2013-08-16 14:00:00
12:00 AM,71.6,64.4,78,30.04,6.2,South,9.2,-,N/A,,Scattered Clouds,170,2013-08-16 14:00:00
12:30 AM,71.6,64.4,78,30.01,6.2,South,9.2,-,N/A,,Partly Cloudy,180,2013-08-16 14:30:00
1:00 AM,71,64,72,30.03,,South,8.1,,,,,170,2013-08-16 15:00:00
1:00 AM,71.6,64.4,78,30.01,6.2,South,8.1,-,N/A,,Partly Cloudy,170,2013-08-16 15:00:00
1:30 AM,71.6,64.4,78,30.01,6.2,South,10.4,-,N/A,,Partly Cloudy,170,2013-08-16 15:30:00
2:00 AM,71.6,64.4,78,30.01,6.2,South,8.1,-,N/A,,Partly Cloudy,170,2013-08-16 16:00:00
2:30 AM,71.6,64.4,78,30.01,6.2,South,8.1,-,N/A,,Scattered Clouds,190,2013-08-16 16:30:00
3:00 AM,71,64,73,30.00,,South,9.2,,,,Overcast,170,2013-08-16 17:00:00
3:00 AM,71.6,64.4,78,30.01,6.2,South,9.2,-,N/A,,Scattered Clouds,170,2013-08-16 17:00:00
3:30 AM,69.8,64.4,83,29.98,6.2,SSE,6.9,-,N/A,,Partly Cloudy,150,2013-08-16 17:30:00
4:00 AM,71.6,64.4,78,29.98,6.2,South,8.1,-,N/A,,Partly Cloudy,170,2013-08-16 18:00:00
4:30 AM,68.0,64.4,88,29.98,6.2,SSE,6.9,-,N/A,,Partly Cloudy,150,2013-08-16 18:30:00
5:00 AM,68.0,64.4,88,30.01,6.2,SE,9.2,-,N/A,,Partly Cloudy,130,2013-08-16 19:00:00
5:30 AM,69.8,64.4,83,30.01,6.2,SSE,8.1,-,N/A,,Partly Cloudy,150,2013-08-16 19:30:00
6:00 AM,66.2,62.6,88,30.01,6.2,ESE,9.2,-,N/A,,Partly Cloudy,120,2013-08-16 20:00:00
6:30 AM,71.6,62.6,73,30.01,6.2,South,8.1,-,N/A,,Mostly Cloudy,170,2013-08-16 20:30:00
7:00 AM,68,64,81,30.04,,SE,8.1,,,,,140,2013-08-16 21:00:00
7:00 AM,68.0,64.4,88,30.04,6.2,SE,8.1,-,N/A,,Scattered Clouds,140,2013-08-16 21:00:00
7:30 AM,68.0,64.4,88,30.04,6.2,South,6.9,-,N/A,,Scattered Clouds,180,2013-08-16 21:30:00
8:00 AM,73.4,64.4,73,30.04,6.2,SE,10.4,-,N/A,,Partly Cloudy,140,2013-08-16 22:00:00
8:30 AM,75.2,62.6,65,30.04,6.2,SSE,9.2,-,N/A,,Partly Cloudy,160,2013-08-16 22:30:00
9:00 AM,77,64,55,30.07,19,South,10.4,,,,Partly Cloudy,170,2013-08-16 23:00:00
9:00 AM,77.0,64.4,65,30.06,6.2,South,10.4,-,N/A,,Partly Cloudy,170,2013-08-16 23:00:00
9:30 AM,78.8,64.4,61,30.06,6.2,SSE,10.4,-,N/A,,Partly Cloudy,150,2013-08-16 23:30:00
10:00 AM,79,64,51,30.07,,SSE,9.2,,,,,150,2013-08-17 00:00:00
10:00 AM,78.8,64.4,61,30.06,6.2,SSE,9.2,-,N/A,,Partly Cloudy,150,2013-08-17 00:00:00
10:30 AM,80.6,62.6,54,30.04,6.2,ESE,10.4,-,N/A,,Partly Cloudy,110,2013-08-17 00:30:00
11:00 AM,82.4,60.8,48,30.04,6.2,ESE,12.7,-,N/A,,Partly Cloudy,120,2013-08-17 01:00:00
11:30 AM,82.4,60.8,48,30.04,6.2,ESE,10.4,-,N/A,,Partly Cloudy,120,2013-08-17 01:30:00
12:00 PM,81,60,38,30.02,,ESE,9.2,,,,,110,2013-08-17 02:00:00
12:00 PM,80.6,59.0,48,30.01,6.2,ESE,9.2,-,N/A,,Partly Cloudy,110,2013-08-17 02:00:00
12:30 PM,82.4,62.6,51,30.01,6.2,ENE,13.8,-,N/A,,Partly Cloudy,60,2013-08-17 02:30:00
1:00 PM,83,63,41,30.00,,ENE,13.8,,,,,60,2013-08-17 03:00:00
1:00 PM,82.4,62.6,51,29.98,6.2,ENE,13.8,-,N/A,,Partly Cloudy,60,2013-08-17 03:00:00
1:30 PM,80.6,64.4,58,29.98,6.2,NE,13.8,-,N/A,,Partly Cloudy,50,2013-08-17 03:30:00
2:00 PM,80.6,64.4,58,29.98,6.2,NE,12.7,-,N/A,,Partly Cloudy,50,2013-08-17 04:00:00
2:30 PM,82.4,64.4,54,29.95,6.2,ENE,12.7,-,N/A,,Partly Cloudy,70,2013-08-17 04:30:00
3:00 PM,80,66,54,29.96,19,NE,13.8,,,,Partly Cloudy,50,2013-08-17 05:00:00
3:00 PM,80.6,66.2,61,29.95,6.2,NE,13.8,-,N/A,,Partly Cloudy,50,2013-08-17 05:00:00
3:30 PM,80.6,62.6,54,29.95,6.2,ENE,15.0,-,N/A,,Partly Cloudy,60,2013-08-17 05:30:00
4:00 PM,80,63,47,29.97,,ENE,12.7,,,,,60,2013-08-17 06:00:00
4:00 PM,78.8,62.6,57,29.95,6.2,ENE,12.7,-,N/A,,Partly Cloudy,60,2013-08-17 06:00:00
4:30 PM,78.8,62.6,57,29.95,6.2,ENE,11.5,-,N/A,,Partly Cloudy,60,2013-08-17 06:30:00
5:00 PM,78.8,60.8,54,29.98,6.2,East,10.4,-,N/A,,Partly Cloudy,80,2013-08-17 07:00:00
5:30 PM,77.0,62.6,61,29.98,6.2,East,10.4,-,N/A,,Partly Cloudy,90,2013-08-17 07:30:00
6:00 PM,75,62,55,30.00,,SE,6.9,,,,,140,2013-08-17 08:00:00
6:00 PM,75.2,62.6,65,29.98,6.2,SE,6.9,-,N/A,,Partly Cloudy,130,2013-08-17 08:00:00
6:30 PM,73.4,60.8,65,29.98,6.2,SSE,5.8,-,N/A,,Partly Cloudy,160,2013-08-17 08:30:00
7:00 PM,72,64,68,30.01,,South,5.8,,,,,170,2013-08-17 09:00:00
7:00 PM,71.6,64.4,78,30.01,6.2,South,5.8,-,N/A,,Partly Cloudy,170,2013-08-17 09:00:00
7:30 PM,73.4,64.4,73,30.01,6.2,South,8.1,-,N/A,,Partly Cloudy,180,2013-08-17 09:30:00
8:00 PM,73.4,64.4,73,30.04,6.2,South,8.1,-,N/A,,Partly Cloudy,180,2013-08-17 10:00:00
8:30 PM,71.6,62.6,73,30.04,6.2,South,6.9,-,N/A,,Partly Cloudy,190,2013-08-17 10:30:00
9:00 PM,72,64,69,30.04,,South,9.2,,,,,180,2013-08-17 11:00:00
9:00 PM,71.6,64.4,78,30.04,6.2,South,9.2,-,N/A,,Partly Cloudy,180,2013-08-17 11:00:00
9:30 PM,71.6,64.4,78,30.04,6.2,South,6.9,-,N/A,,Partly Cloudy,180,2013-08-17 11:30:00
10:00 PM,70,64,74,30.05,,South,5.8,,,,,170,2013-08-17 12:00:00
10:00 PM,69.8,64.4,83,30.04,6.2,South,5.8,-,N/A,,Partly Cloudy,170,2013-08-17 12:00:00
10:30 PM,69.8,62.6,78,30.04,6.2,SSE,6.9,-,N/A,,Partly Cloudy,150,2013-08-17 12:30:00
11:00 PM,69.8,62.6,78,30.04,6.2,SSE,8.1,-,N/A,,Partly Cloudy,150,2013-08-17 13:00:00
11:30 PM,68.0,62.6,83,30.04,6.2,SSW,3.5,-,N/A,,Partly Cloudy,200,2013-08-17 13:30:00